Theta_e
309 309 309 310 310 311 311 311 311 311 311 311 311 311 312 314 317 318 320 317 316 317 318 319 319 320 321 322 324 324 322 329 333 334 333 334 330 336 336 338 339 339 336 333 338
310 310 310 310 310 311 311 311 310 310 310 310 311 311 313 316 319 323 324 323 319 320 320 320 319 319 320 320 322 322 319 323 329 331 331 334 332 334 334 338 337 339 335 338 338
310 310 310 310 310 311 311 310 310 310 310 310 311 312 315 316 319 324 325 319 322 321 321 320 319 318 319 318 319 321 320 321 329 335 335 333 332 332 334 332 338 336 337 338 337
309 310 310 310 311 311 311 310 310 310 310 311 311 314 316 316 320 324 323 317 317 321 320 318 318 319 317 317 320 321 322 324 330 334 334 332 332 333 334 335 336 337 335 337 335
309 310 310 310 311 310 310 310 310 310 310 311 312 315 316 317 322 323 319 316 316 317 318 321 322 322 320 320 319 320 321 328 332 333 334 334 332 332 332 334 336 338 337 339 338
309 309 309 310 310 310 310 310 310 310 311 311 312 314 315 315 323 322 317 317 320 321 323 323 324 323 322 321 322 325 326 325 333 333 334 332 333 333 332 335 339 338 339 339 337
308 308 309 310 310 310 310 310 310 310 311 311 312 314 317 322 323 322 321 320 320 323 323 324 323 324 325 323 325 326 325 325 328 332 333 334 334 333 333 338 339 339 339 338 337
309 309 309 310 309 310 310 310 310 311 311 312 313 314 322 324 323 323 321 322 323 323 325 324 324 323 324 325 324 325 323 325 325 332 332 330 326 326 332 338 338 339 339 338 338
309 309 309 309 309 310 310 310 311 311 312 313 314 316 322 325 323 324 323 324 324 324 325 324 324 325 324 321 321 321 326 329 329 329 331 328 325 325 331 336 337 338 338 338 338
310 310 310 309 310 310 310 311 312 312 313 315 316 318 324 325 324 324 325 324 324 325 325 326 325 321 318 319 322 323 328 328 330 327 324 325 331 329 333 334 335 336 337 338 338
310 310 310 310 310 310 311 312 313 316 319 318 320 321 323 324 324 325 325 325 325 325 322 323 321 322 322 322 321 325 327 329 329 324 329 329 331 331 333 335 336 336 337 337 337
310 310 310 310 311 311 312 312 318 317 315 322 323 322 322 321 322 324 325 325 325 323 323 321 322 322 323 323 325 327 325 324 322 329 330 329 330 330 331 332 334 335 335 336 336
310 310 310 311 311 311 311 312 315 315 315 323 324 323 323 323 324 324 325 325 323 323 322 323 323 323 324 325 325 325 327 327 326 327 327 328 327 326 328 329 332 335 334 336 336
311 310 310 310 311 311 312 317 318 314 320 322 325 324 325 325 324 324 325 324 323 323 323 322 321 323 323 325 325 327 326 327 328 324 329 326 327 326 325 325 326 330 337 336 337
312 310 310 310 311 313 315 321 320 317 321 326 326 325 324 324 324 325 324 324 323 323 321 323 324 325 327 327 326 330 327 327 327 325 327 328 330 326 323 324 324 335 337 339 338
313 311 311 311 311 314 321 322 321 321 327 326 325 323 322 323 324 325 324 324 324 322 322 323 325 325 328 327 328 327 325 323 324 324 329 327 327 326 325 324 326 334 339 341 340
313 312 311 311 314 320 321 322 319 323 324 323 322 321 322 322 323 323 323 321 321 322 323 326 328 328 327 328 326 324 323 325 328 330 330 325 327 325 325 325 329 331 336 335 333
314 313 311 312 321 317 322 319 323 323 326 324 321 321 322 322 322 324 321 320 320 323 327 328 330 329 330 329 329 328 324 325 330 332 330 325 328 326 324 325 330 331 331 332 332
314 313 312 313 315 316 322 319 321 323 327 324 321 321 321 321 322 323 322 321 322 323 327 329 331 329 331 329 327 330 331 326 326 324 326 326 325 326 326 327 328 329 329 329 330
313 313 313 315 317 323 321 321 323 325 327 325 324 322 320 320 322 321 321 325 328 327 328 328 331 331 331 329 328 326 328 327 325 326 331 328 327 325 327 327 326 326 328 328 328
315 318 315 315 318 325 322 323 325 327 326 327 327 328 329 327 320 321 324 328 327 328 328 327 328 332 329 329 330 327 329 327 323 322 326 329 327 327 326 326 326 326 326 326 328
319 320 317 315 322 319 321 323 324 325 325 325 326 327 329 330 323 329 329 329 329 330 332 329 327 331 331 330 330 328 329 324 324 327 325 325 331 325 326 326 326 327 326 325 327
314 321 319 316 320 317 319 322 324 325 325 328 328 328 328 328 332 331 329 333 333 331 329 327 327 329 329 326 327 331 330 326 323 323 329 328 329 326 327 327 327 328 325 322 323
319 322 323 321 322 318 320 321 324 324 324 324 325 326 326 327 329 330 333 330 330 331 330 327 324 327 327 326 328 330 330 329 326 326 329 330 330 328 328 327 328 326 324 321 321
325 326 325 318 317 318 320 320 321 324 323 324 323 326 328 329 332 333 333 330 332 332 334 319 329 328 328 329 331 331 332 331 330 328 329 328 330 327 326 326 326 325 323 321 320
320 320 323 327 327 318 317 320 325 325 323 323 322 325 331 333 332 332 332 329 332 330 331 324 332 330 330 330 330 331 328 329 330 330 329 329 331 328 328 327 327 325 323 321 320
315 319 323 326 324 319 324 325 325 324 324 325 323 329 332 333 334 331 330 330 329 329 332 329 326 325 330 329 329 330 332 329 329 328 329 330 327 327 326 327 326 325 324 321 320
Wind_Speed
11 11 9 10 8 10 11 11 11 13 15 16 17 17 18 18 19 19 14 3 2 8 7 6 6 9 11 9 3 5 4 3 7 7 7 11 8 18 9 12 11 12 11 17 20
13 13 10 11 9 12 12 11 12 13 14 16 15 15 17 20 19 2 7 4 6 8 7 3 4 5 2 1 4 5 3 9 9 9 8 14 10 16 6 18 4 13 15 23 22
14 14 13 12 11 13 14 12 12 13 13 15 14 13 16 20 12 4 9 7 7 8 7 2 6 5 1 3 5 6 7 7 10 26 22 13 9 10 16 4 15 28 24 26 26
14 15 15 13 13 14 15 13 11 13 12 14 12 13 17 13 1 9 13 7 7 8 3 1 2 1 2 3 3 2 14 11 8 22 22 11 11 7 19 13 25 27 24 28 30
14 15 15 14 13 15 15 13 12 11 11 12 12 14 16 11 7 10 8 3 5 8 8 6 2 3 3 4 5 6 6 13 13 27 29 24 8 7 14 14 26 28 28 31 30
14 15 14 14 15 15 14 12 11 10 10 11 12 14 16 5 7 8 4 6 12 10 6 1 4 9 9 7 1 5 9 5 18 21 16 7 3 5 11 21 31 32 32 28 24
15 14 13 13 15 15 13 11 10 9 8 11 12 14 15 4 5 6 2 5 2 2 3 5 8 7 9 6 10 3 5 6 4 8 2 5 5 7 7 32 36 32 31 25 17
14 14 14 13 14 13 11 9 10 9 8 11 12 16 7 3 5 5 2 2 2 1 4 7 9 13 5 10 6 5 6 5 4 7 4 5 7 4 14 31 23 29 29 26 24
12 12 12 13 11 11 9 9 9 8 8 10 11 9 8 3 2 0 3 0 4 5 7 12 12 4 3 4 7 7 3 4 2 8 6 5 7 15 15 25 22 28 29 24 25
10 10 10 10 9 10 7 9 8 7 8 10 12 7 2 8 9 5 2 5 7 11 7 2 1 3 3 7 2 7 2 3 4 3 9 4 5 9 8 17 17 19 22 17 19
7 7 9 8 8 9 7 6 5 3 6 8 8 11 10 11 4 1 2 2 4 3 3 4 6 4 8 2 7 3 4 2 1 5 9 5 8 10 12 7 5 11 13 8 9
6 6 7 7 9 9 5 2 3 4 8 7 11 18 18 15 5 4 2 3 2 2 4 8 5 9 1 5 3 3 3 5 6 11 9 2 6 3 8 4 1 12 12 7 5
5 6 6 10 8 8 7 3 4 14 3 6 9 11 8 3 3 4 5 3 4 4 4 4 10 6 2 4 5 2 5 1 5 4 3 5 11 10 7 7 4 8 4 10 16
5 6 7 5 5 8 2 5 4 2 4 5 2 3 4 3 3 8 7 3 4 2 4 4 8 2 6 3 4 6 7 3 4 5 3 3 1 7 10 11 13 21 10 13 22
5 6 7 10 4 7 2 9 3 2 3 3 5 2 3 5 1 5 8 5 5 1 5 7 5 3 9 1 3 4 1 14 5 6 6 9 6 7 7 10 8 20 18 9 8
4 5 8 12 9 3 6 2 5 5 2 2 7 2 2 1 2 4 5 4 2 5 4 4 1 5 2 3 4 2 4 8 4 3 5 6 4 6 5 4 3 7 15 11 10
5 5 10 11 5 5 3 8 5 3 4 3 5 3 2 2 2 3 3 3 4 4 5 6 6 6 4 6 8 8 8 4 5 5 3 6 7 4 6 6 2 7 13 15 13
4 6 9 13 6 7 6 5 2 3 5 2 3 2 4 4 3 3 3 1 2 6 2 4 7 8 11 2 5 4 6 5 2 2 2 5 4 3 6 14 12 14 13 9 7
3 6 9 14 6 1 2 3 6 5 4 2 5 4 1 2 2 2 5 5 6 7 6 5 1 4 1 5 2 1 6 3 6 3 4 1 4 5 7 8 10 14 15 11 12
2 4 9 10 6 4 4 4 4 5 7 2 3 3 4 2 4 4 6 3 4 3 3 6 3 1 5 1 11 7 4 4 4 3 1 3 3 4 3 4 5 6 8 12 13
2 2 13 11 6 3 3 5 6 12 10 3 4 3 3 2 7 3 3 2 0 2 5 5 4 4 3 6 1 5 3 5 4 3 4 2 4 1 5 3 5 3 3 7 11
3 1 16 13 3 2 2 4 7 7 5 5 3 3 2 3 3 2 4 1 3 4 4 2 5 3 2 3 1 0 4 4 5 2 2 3 4 3 3 5 8 1 8 12 9
1 1 15 17 3 2 5 5 4 3 4 3 3 4 3 2 5 3 4 5 4 4 6 5 3 3 8 6 3 1 2 2 6 4 2 4 4 3 2 6 5 3 10 9 9
1 2 4 9 2 6 1 4 5 10 1 5 4 7 6 6 6 4 3 7 6 8 7 7 4 6 6 6 3 2 3 3 4 4 4 4 3 6 5 5 5 6 9 6 7
3 3 2 1 3 3 1 2 4 4 2 7 6 4 1 3 4 4 4 2 7 5 4 5 4 1 3 4 2 3 2 4 3 4 4 4 7 7 8 10 5 5 9 5 3
4 4 3 3 5 3 1 3 2 3 2 1 5 2 6 4 3 6 5 1 3 6 3 3 1 2 6 3 4 3 7 6 3 4 6 7 1 3 12 9 5 8 8 4 2
7 6 3 8 5 3 2 4 5 5 6 5 5 3 6 6 2 2 4 7 7 5 3 4 4 3 1 3 3 5 5 2 4 2 7 4 7 9 6 14 9 12 7 3 2
Wind_Direction
262 266 266 275 280 286 291 301 307 314 316 316 317 318 318 320 321 308 304 304 162 195 222 229 257 268 281 289 185 219 82 231 214 161 221 177 183 202 190 138 160 205 180 157 169
263 265 265 274 277 284 289 297 306 315 317 317 321 324 325 326 332 27 359 319 211 211 232 244 322 350 298 219 206 146 147 222 213 173 211 191 185 184 161 158 194 186 149 152 177
262 264 266 269 277 282 287 295 308 312 319 317 324 328 326 331 331 340 330 323 218 218 229 302 323 348 287 259 204 183 203 205 222 206 206 188 195 185 148 203 198 170 164 164 179
262 263 266 266 277 280 285 295 304 311 318 318 324 329 329 336 315 332 328 313 203 213 183 73 53 309 335 287 226 273 253 229 200 199 200 192 173 188 167 206 202 189 171 170 181
264 263 265 267 273 276 280 290 301 308 313 317 320 328 338 323 313 328 327 3 137 149 124 99 327 285 260 265 283 192 287 160 189 189 201 204 187 182 190 191 200 186 176 181 191
269 266 265 266 267 272 276 287 297 303 308 312 312 325 329 301 334 328 28 91 106 107 107 23 325 318 284 269 162 296 6 117 177 187 185 135 276 182 167 186 186 188 182 186 203
270 264 263 264 263 266 273 285 290 293 301 299 311 321 312 308 312 320 35 92 121 25 324 339 322 304 311 298 345 297 177 32 75 142 107 152 295 224 186 185 187 192 189 187 196
266 262 257 255 258 263 272 282 280 282 291 297 307 316 269 290 300 293 249 190 259 292 342 332 333 292 258 321 354 38 52 46 285 162 160 132 281 38 184 180 186 197 198 199 192
267 256 250 251 256 264 268 272 272 284 290 294 301 309 288 296 119 155 270 205 348 305 312 305 302 268 357 27 16 14 353 21 53 215 118 38 326 341 173 179 185 205 205 204 201
265 255 251 251 254 254 267 267 277 279 281 282 274 302 316 339 341 282 289 304 303 322 344 12 257 33 27 53 322 285 360 353 340 39 67 98 7 4 110 175 195 220 221 209 212
269 251 244 241 241 252 251 279 292 276 263 241 291 283 297 331 326 197 258 309 271 315 8 360 43 302 276 144 212 225 150 117 248 1 70 39 34 24 55 101 154 230 234 164 195
280 257 235 233 233 238 232 239 69 22 310 288 284 272 281 294 292 226 254 212 123 39 339 10 312 278 149 310 105 105 53 359 18 75 87 10 33 316 62 66 288 256 236 162 230
274 241 218 224 225 239 244 305 293 328 309 289 266 283 301 359 216 281 190 95 88 30 17 155 257 312 99 110 155 110 99 187 123 129 82 69 25 360 12 26 1 0 220 190 188
277 238 209 216 230 239 126 59 358 269 58 285 242 283 232 206 273 245 231 88 36 40 341 267 296 48 86 162 109 53 328 324 157 120 148 28 194 11 334 43 32 28 75 148 178
278 234 206 209 209 145 96 356 35 144 108 236 214 265 226 171 86 194 203 179 151 151 72 267 347 37 68 294 140 128 112 90 58 86 93 3 74 315 347 16 3 14 52 129 155
286 231 216 209 220 137 358 37 119 42 240 273 184 203 79 174 313 133 156 132 94 82 357 294 338 41 174 66 42 80 83 50 52 75 42 316 108 333 4 315 347 37 69 97 109
300 233 220 204 197 69 101 140 43 132 316 215 168 150 136 145 290 154 130 64 133 68 352 341 22 332 26 43 18 61 56 6 17 21 194 320 63 344 346 3 89 77 91 110 116
305 238 218 183 151 15 111 58 183 248 251 305 123 89 157 155 266 139 77 107 75 93 96 65 4 360 333 47 139 33 101 138 147 153 245 356 48 314 357 49 83 107 107 105 90
304 237 217 184 203 235 135 90 215 224 268 185 61 123 277 219 241 106 184 167 199 179 140 124 271 308 336 17 19 33 46 188 102 11 65 307 92 21 9 46 79 90 87 73 78
286 235 199 174 176 134 86 226 245 226 302 108 124 140 189 249 172 148 185 198 146 186 101 189 111 60 283 294 38 95 150 32 14 113 112 332 107 182 261 317 330 56 100 84 91
177 219 177 182 151 133 153 236 269 296 312 104 154 109 207 219 198 158 196 64 87 100 61 130 104 291 2 19 292 15 27 58 113 108 147 167 269 151 200 284 301 228 69 77 99
196 33 168 178 97 41 176 216 308 311 317 52 100 147 128 175 101 123 153 100 25 155 63 350 117 95 128 240 7 56 148 126 114 288 52 127 269 207 204 287 294 252 109 104 114
196 292 176 180 143 284 285 273 256 290 308 86 45 11 16 84 102 93 70 1 100 98 146 179 22 43 346 354 5 25 84 109 108 97 184 125 253 142 88 268 218 163 133 107 101
161 69 121 192 181 152 218 295 321 322 22 78 49 56 46 32 33 128 100 22 26 79 104 118 117 152 183 209 150 236 164 118 101 108 173 205 167 231 211 240 179 127 137 113 69
42 69 67 194 260 201 145 294 303 318 62 40 50 38 125 34 56 75 41 50 34 52 52 89 116 152 251 250 124 44 307 156 146 156 135 197 171 203 186 208 154 160 152 120 81
55 48 42 38 303 208 105 269 261 282 112 2 101 315 64 105 206 178 139 133 149 23 72 38 108 123 16 322 24 54 8 105 96 116 73 109 257 142 189 190 220 183 166 141 53
44 43 48 14 353 103 229 267 292 329 49 68 154 110 39 344 351 43 52 124 147 113 93 75 113 70 337 350 87 22 334 38 99 83 133 154 219 150 174 209 212 172 175 168 18